This demonstration page uses our WeatherBlox Daily Observations layout. Learn more.

Left ArrowRight Arrow

39.01783, -85.05884

Hourly Observations for June 20, 2017

Temp ( °F °C ) Dew Point ( °F °C ) Humidity (%) Winds ( mph kmh ) Pressure ( in mb ) Visibility ( mi km ) Precip ( " mm )
12:52 am 00:52 Partly Cloudy 65 18.3 56 13.3 73 73 SSW 7 11 29.96 1015 10 16 N/A
1:52 am 01:52 Partly Cloudy 67 19.4 55 12.8 66 66 WSW 3 6 29.96 1014 10 16 N/A
2:52 am 02:52 Mostly Cloudy 67 19.4 55 12.8 66 66 WSW 8 13 29.98 1015 10 16 N/A
3:52 am 03:52 Mostly Cloudy 66 18.9 55 12.8 68 68 SW 3 6 29.96 1015 10 16 N/A
4:52 am 04:52 Mostly Clear 64 17.8 55 12.8 73 73 WSW 6 9 29.98 1015 10 16 N/A
5:52 am 05:52 Mostly Clear 62 16.7 56 13.3 80 80 SW 7 11 29.99 1016 10 16 N/A
6:52 am 06:52 Sunny 63 17.2 57 13.9 81 81 WSW 5 7 30.00 1016 10 16 N/A
7:52 am 07:52 Sunny 66 18.9 58 14.4 75 75 W 6 9 30.01 1016 10 16 N/A
8:52 am 08:52 Sunny 69 20.6 58 14.4 68 68 SSW 5 7 30.02 1017 10 16 N/A
9:52 am 09:52 Sunny 73 22.8 56 13.3 55 55 W 8 13 30.03 1017 10 16 N/A
10:52 am 10:52 Sunny 76 24.4 56 13.3 50 50 W 9 15 30.03 1017 10 16 N/A
11:52 am 11:52 Mostly Sunny 79 26.1 56 13.3 45 45 W 13 20 30.03 1017 10 16 N/A
12:52 pm 12:52 Mostly Sunny 80 26.7 54 12.2 41 41 W 15 24 30.01 1016 10 16 N/A
1:52 pm 13:52 Partly Cloudy 82 27.8 53 11.7 37 37 W 18 30 30.00 1016 10 16 N/A
2:52 pm 14:52 Mostly Cloudy 82 27.8 55 12.8 40 40 WNW 10 17 29.99 1016 10 16 N/A
3:52 pm 15:52 Mostly Cloudy 81 27.2 55 12.8 41 41 W 10 17 29.97 1015 10 16 N/A
4:52 pm 16:52 Partly Cloudy 83 28.3 56 13.3 40 40 W 12 19 29.96 1015 10 16 N/A
5:52 pm 17:52 Partly Cloudy 82 27.8 56 13.3 41 41 W 12 19 29.96 1015 10 16 N/A
6:52 pm 18:52 Mostly Sunny 81 27.2 55 12.8 41 41 WSW 7 11 29.95 1014 10 16 N/A
7:52 pm 19:52 Mostly Sunny 80 26.7 55 12.8 42 42 WSW 5 7 29.95 1014 10 16 N/A
8:52 pm 20:52 Mostly Sunny 77 25 54 12.2 45 45 SSW 5 7 29.95 1014 10 16 N/A
9:52 pm 21:52 Partly Cloudy 70 21.1 56 13.3 61 61 SSW 7 11 29.95 1014 10 16 N/A
10:52 pm 22:52 Clear 69 20.6 57 13.9 66 66 SSW 6 9 29.96 1015 10 16 N/A
11:52 pm 23:52 Partly Cloudy 67 19.4 56 13.3 68 68 S 7 11 29.96 1015 10 16 N/A

Powered by AerisWeather